Regional Weather Roundup
Issued by NWS

Home | Current Version | Previous Version | Graphics & Text | Print | Product List | Glossary On
Versions: 1 2 3 4 5 6 7 8 9 10 11 12 13 14 15 16 17 18 19 20 21 22 23 24 25 26 27 28 29 30 31 32 33 34 35 36 37 38 39 40 41 42 43 44 45 46 47 48 49 50
000
ASUS45 KPSR 300700
RWRAZ

PRELIMINARY ARIZONA REGIONAL HOURLY WEATHER ROUNDUP
NATIONAL WEATHER SERVICE PHOENIX AZ
1200 AM MST SAT AUG 30 2014

NOTE: FAIR INDICATES FEW OR NO CLOUDS BELOW 12,000 FEET WITH NO
SIGNIFICANT WEATHER AND/OR OBSTRUCTIONS TO VISIBILITY.

AZZ001>003-036-300800-
NORTHWEST ARIZONA

CITY           SKY/WX    TMP DP  RH WIND       PRES   REMARKS
KINGMAN        CLEAR     75  33  21 SE9       29.95F
$$

AZZ004>008-015-016-018-300800-
NORTH CENTRAL ARIZONA

CITY           SKY/WX    TMP DP  RH WIND       PRES   REMARKS
GRAND CANYON     N/A    N/A N/A N/A MISG        N/A
WILLIAMS       PTCLDY    55  43  62 SE9       30.29F
PRESCOTT       PTCLDY    66  46  48 S8        30.10S
FLAGSTAFF      CLEAR     50  43  77 CALM      30.27F
PAYSON         CLEAR     70  37  30 CALM      30.12F
PAGE           CLEAR     77  29  17 SW6       30.02S
$$

AZZ009>014-017-300800-
NORTHEAST ARIZONA

CITY           SKY/WX    TMP DP  RH WIND       PRES   REMARKS
WINSLOW        NOT AVBL
SAINT JOHNS    PTCLDY    64  45  49 S6        30.16S
WINDOW ROCK    CLEAR     52  31  44 CALM      30.24S
$$

AZZ023-300800-
GREATER PHOENIX AREA

CITY           SKY/WX    TMP DP  RH WIND       PRES   REMARKS
PHOENIX        CLEAR     92  47  21 E5        29.75R
LUKE AFB       NOT AVBL
DEER VALLEY    CLEAR     90  43  19 NE8       29.78S
SCOTTSDALE     CLEAR     89  47  23 CALM      29.79S
MESA-GATEWAY   CLEAR     84  39  20 VRB6      29.80S
$$

AZZ027-028-300800-
SOUTHWEST MARICOPA COUNTY AND PINAL COUNTY

CITY           SKY/WX    TMP DP  RH WIND       PRES   REMARKS
CASA GRANDE    CLEAR     82  37  20 CALM      29.79S
$$

AZZ503-504-507>509-300800-
SOUTHEAST ARIZONA

CITY           SKY/WX    TMP DP  RH WIND       PRES   REMARKS
TUCSON         CLEAR     81  44  27 S8        29.91S
DAVIS-MONTHAN  CLEAR     78  44  29 SE8       29.90R
NOGALES        CLEAR     66  54  65 CALM      30.02R
SIERRA VISTA   CLEAR     74  47  38 SW9       30.08R
SAFFORD        CLEAR     74  48  39 E3        29.92S
$$

AZZ020-021-025-026-031-300800-
SOUTHWEST ARIZONA

CITY           SKY/WX    TMP DP  RH WIND       PRES   REMARKS
YUMA           CLEAR     92  45  19 CALM      29.69R
$$

CAZ031-033-041-043-047-048-061-300800-
SOUTHERN CALIFORNIA

CITY           SKY/WX    TMP DP  RH WIND       PRES   REMARKS
DOWNTOWN L.A.  CLEAR     68  61  78 CALM      29.82F
L.A. AIRPORT   MOCLDY    68  64  87 W5        29.83S
SAN DIEGO      MOCLDY    70  63  78 W5        29.85F
BURBANK        CLEAR     72  58  61 SE5       29.83S
ONTARIO        CLEAR     72  58  61 CALM      29.84F
RIVERSIDE      CLEAR     73  57  57 CALM      29.84F
PALM SPRINGS   CLEAR     91  46  21 SW3       29.72S
EL CENTRO NAS  CLEAR     87  48  25 SW9       29.67S
IMPERIAL       CLEAR     88  49  25 W7        29.66S
BLYTHE         CLEAR     86  45  23 CALM      29.69S
$$

NVZ020-UTZ003-300800-
SOUTHERN NEVADA-UTAH

CITY           SKY/WX    TMP DP  RH WIND       PRES   REMARKS
LAS VEGAS      NOT AVBL
SALT LAKE CITY MOCLDY    75  41  29 S12       29.92F
$$

NMZ009-TXZ055-300800-
NEW MEXICO-WEST TEXAS

CITY           SKY/WX    TMP DP  RH WIND       PRES   REMARKS
ALBUQUERQUE    CLEAR     71  42  35 N5        30.14S
EL PASO        PTCLDY    81  48  31 E12       30.02R
$$


........................KEY........................
SKY/WX - SKY CONDITION/WEATHER
TMP    - TEMPERATURE IN FAHRENHEIT
DP     - DEW POINT IN FAHRENHEIT
RH     - RELATIVE HUMIDITY IN PERCENT
WIND   - DIRECTION AND SPEED IN MILES PER HOUR (MPH)
VRB    - VARIABLE WIND DIRECTION
PRES   - MEAN SEA LEVEL PRESSURE IN INCHES OF MERCURY
         F - FALLING PRESSURE   R - RISING PRESSURE
         S - STEADY PRESSURE
VSB    - VISIBILITY IN MILES
HX     - HEAT INDEX IN FAHRENHEIT
WCI    - WIND CHILL INDEX IN FAHRENHEIT
TC     - TEMPERATURE IN CELSIUS WHICH IS ALSO KNOWN AS
         TEMPERATURE IN CENTIGRADE
AFB    - AIR FORCE BASE
         LUKE AFB IS LUKE AIR FORCE BASE
         DAVIS-MONTHAN IS DAVIS-MONTHAN AIR FORCE BASE
NAS    - NAVAL AIR STATION
         EL CENTRO NAS IS EL CENTRO NAVAL AIR STATION
N/A    - NOT AVAILABLE



USA.gov is the U.S. government's official web portal to all federal, state and local government web resources and services.